Regional Weather Roundup
Issued by NWS

Home | Current Version | Previous Version | Graphics & Text | Print | Product List | Glossary Off
Versions: 1 2 3 4 5 6 7 8 9 10 11 12 13 14 15 16 17 18 19 20 21 22 23 24 25 26 27 28 29 30 31 32 33 34 35 36 37 38 39 40 41 42 43 44 45 46 47 48 49 50

000
ASUS43 KMPX 250510
RWRMN
WEATHER ROUNDUP FOR MINNESOTA
NATIONAL WEATHER SERVICE TWIN CITIES/CHANHASSEN MN
1200 AM CDT THU MAY 25 2017


NOTE: "FAIR" INDICATES FEW OR NO CLOUDS BELOW 12,000 FEET WITH NO
SIGNIFICANT WEATHER AND/OR OBSTRUCTIONS TO VISIBILITY. N/A MEANS
CURRENT SKY AND/OR WEATHER CONDITIONS ARE NOT AVAILABLE.

MNZ060>063-068>070-250600-
   Twin Cities Metro

CITY           SKY/WX    TMP DP  RH WIND       PRES   REMARKS
TWIN CITIES    CLOUDY    58  45  62 VRB5      29.71S
ST PAUL        MOCLDY    54  49  83 CALM      29.71F
CRYSTAL        CLOUDY    52  45  77 CALM      29.70S
EDEN PRAIRIE   CLOUDY    53  46  77 CALM      29.69F
$$
MNZ001>005-007-008-013>017-022>024-027-028-250600-
   Northwest Minnesota

CITY           SKY/WX    TMP DP  RH WIND       PRES   REMARKS
THIEF RVR FALL CLEAR     51  42  71 SE12      29.66S
PARK RAPIDS    CLOUDY    54  40  59 SE7       29.69S
MAHNOMEN       FAIR      49  42  75 SE8       29.67S
$$
MNZ006-009>011-018-025>026-250600-
   North Central Minnesota

CITY           SKY/WX    TMP DP  RH WIND       PRES   REMARKS
BAUDETTE       CLEAR     48  40  73 SE8       29.70S
INTL FALLS     CLEAR     47  38  71 SE3       29.74R
GRAND RAPIDS   CLEAR     46  40  79 SE3       29.77R
WALKER         CLOUDY    52  43  71 SE5       29.71F
$$
MNZ012-019>021-037-250600-
   Northeast Minnesota

CITY           SKY/WX    TMP DP  RH WIND       PRES   REMARKS
DULUTH         PTCLDY    44  41  89 E6        29.75S
HIBBING        CLEAR     39  37  92 CALM      29.76R
GRAND MARAIS     N/A     40  39  97 CALM      29.78F
$$
MNZ029>031-032-039>041-046>048-054>057-064-250600-
   West Central Minnesota

CITY           SKY/WX    TMP DP  RH WIND       PRES   REMARKS
ALEXANDRIA     MOCLDY    49  41  74 SE8       29.71S
$$
MNZ033>034-036-042>043-049>051-058-059-250600-
   Central Minnesota

CITY           SKY/WX    TMP DP  RH WIND       PRES   REMARKS
ST CLOUD       CLOUDY    53  49  86 E3        29.70F
BRAINERD       CLOUDY    53  44  71 E5        29.72S
$$
MNZ037-044-045-052-053-250600-
   East Central Minnesota

CITY           SKY/WX    TMP DP  RH WIND       PRES   REMARKS
$$
MNZ071>073-080-081-089-090-097-098-250600-
   Southwest Minnesota

CITY           SKY/WX    TMP DP  RH WIND       PRES   REMARKS
MARSHALL       PTCLDY    52  47  83 SE7       29.68S
REDWOOD FALLS  CLEAR     51  45  79 SE5       29.69S
WORTHINGTON    CLEAR     47  43  86 SE6       29.69S
$$
MNZ065>067-074>077-082>085-091>093-250600-
   South Central Minnesota

CITY           SKY/WX    TMP DP  RH WIND       PRES   REMARKS
MANKATO          N/A     51  48  89 E5        29.71S
FAIRMONT       CLEAR     50  47  89 CALM      29.70F
$$
MNZ078>079-086>088-094>096-250600-
   Southeast Minnesota

CITY           SKY/WX    TMP DP  RH WIND       PRES   REMARKS
ROCHESTER      CLOUDY    53  49  86 E7        29.71S
$$
ABBREVIATIONS USED IN REMARKS
   TC - TEMPERATURES IN CELSIUS
  WCI - WIND CHILL INDEX
   HX - HEAT INDEX
  VSB - VISIBILITY
$$



USA.gov is the U.S. government's official web portal to all federal, state and local government web resources and services.